Main page
METAR-TAF:

METAR-TAF

Airports :

Clines Corners, New Mexico, United States

latitude: 35-00N, longitude: 105-40W, elevation: 7085 ft

Current weather observation

The report was made 29 minutes ago, at 14:53 UTC
Wind 9 mph from the North/Northwest
Temperature 50°F
Humidity 76%
Pressure 30.25 in. Hg
Visibility: 10 miles
Broken clouds at a height of 10000 ft

METAR: KCQC 221453Z AUTO 33008KT 10SM BKN100 10/06 A3025 RMK AO2 SLP192 T01000056 50000

Time: 09:22 (15:22 UTC)


TAF: missing

Weather observations and forecasts of more than 4000 airports (METAR and TAF reports).

The available stations are represented by yellow and red dots on the map.

Hover mouse over dot to see the name of the station.

Then click to see weather observations and forecasts.

To change the map : click on the green buttons with a black cross to zoom in, on the green button with a dash to zoom out, or on the green arrows for adjacent maps.


METAR-TAF: